DW9356 Weather Reports


Display with metric or nautical units.
time (UTC)temp
F
wind
direction
speed
MPH
gust
MPH
rain 1hr
in
rain 24hr
in
rain mn
in
humidity
%
barometer
mb
20260503224930 80 140 2.0 4.0 0.00 0.00 0.00 43 1017.5
20260503224428 80 132 1.0 5.0 0.00 0.00 0.00 43 1017.7
20260503223924 80 175 2.0 5.0 0.00 0.00 0.00 45 1017.6
20260503223358 80 169 3.0 5.0 0.00 0.00 0.00 42 1017.6
20260503222856 80 166 2.0 4.0 0.00 0.00 0.00 45 1017.8
20260503222327 80 159 2.0 5.0 0.00 0.00 0.00 44 1017.8
20260503222048 80 196 2.0 5.0 0.00 0.00 0.00 43 1017.9
20260503221322 80 178 2.0 5.0 0.00 0.00 0.00 42 1018.0
20260503220756 80 187 3.0 7.0 0.00 0.00 0.00 41 1018.0
20260503220252 80 142 3.0 7.0 0.00 0.00 0.00 41 1018.0
20260503215750 80 224 2.0 7.0 0.00 0.00 0.00 42 1018.0
20260503215246 80 150 1.0 4.0 0.00 0.00 0.00 41 1018.0
20260503214719 80 188 1.0 4.0 0.00 0.00 0.00 38 1018.0
20260503214218 80 152 2.0 5.0 0.00 0.00 0.00 44 1018.0
20260503213915 81 178 2.0 5.0 0.00 0.00 0.00 43 1018.2
20260503213127 81 241 2.0 7.0 0.00 0.00 0.00 41 1018.5
20260503212559 81 165 1.0 4.0 0.00 0.00 0.00 43 1018.5
20260503212032 81 179 1.0 4.0 0.00 0.00 0.00 41 1018.6
20260503211528 81 190 2.0 4.0 0.00 0.00 0.00 43 1018.6
20260503211003 82 107 2.0 5.0 0.00 0.00 0.00 43 1018.8
20260503210656 82 123 1.0 5.0 0.00 0.00 0.00 43 1018.7
20260503205933 82 156 2.0 5.0 0.00 0.00 0.00 41 1018.7
20260503205406 81 191 2.0 5.0 0.00 0.00 0.00 41 1018.8
20260503204904 81 155 2.0 4.0 0.00 0.00 0.00 44 1018.9
20260503204400 82 178 2.0 5.0 0.00 0.00 0.00 42 1019.1
20260503203835 82 142 2.0 6.0 0.00 0.00 0.00 42 1019.2
20260503203332 82 81 2.0 6.0 0.00 0.00 0.00 43 1019.2
20260503202829 82 148 1.0 4.0 0.00 0.00 0.00 41 1019.3
20260503202301 83 143 1.0 4.0 0.00 0.00 0.00 47 1019.4
20260503201759 81 203 1.0 5.0 0.00 0.00 0.00 43 1019.5
20260503201232 81 105 1.0 5.0 0.00 0.00 0.00 42 1019.6
20260503200728 83 137 2.0 7.0 0.00 0.00 0.00 42 1019.8
20260503200201 82 146 2.0 7.0 0.00 0.00 0.00 45 1019.9
20260503195659 82 98 2.0 6.0 0.00 0.00 0.00 48 1019.9
20260503195356 81 136 2.0 6.0 0.00 0.00 0.00 43 1020.0
20260503194852 81 174 2.0 5.0 0.00 0.00 0.00 44 1020.0
20260503194108 80 12 2.0 5.0 0.00 0.00 0.00 42 1020.0
20260503193605 81 146 3.0 8.0 0.00 0.00 0.00 42 1020.2
20260503193040 82 119 3.0 8.0 0.00 0.00 0.00 46 1020.4
20260503192540 81 175 3.0 10.0 0.00 0.00 0.00 43 1020.3
20260503192014 82 130 3.0 10.0 0.00 0.00 0.00 43 1020.4
20260503191512 81 126 2.0 7.0 0.00 0.00 0.00 44 1020.5
20260503191010 80 136 2.0 6.0 0.00 0.00 0.00 42 1020.5
20260503190509 80 250 1.0 5.0 0.00 0.00 0.00 43 1020.7
20260503190008 80 188 1.0 5.0 0.00 0.00 0.00 45 1020.6
20260503185706 80 161 1.0 4.0 0.00 0.00 0.00 45 1020.7
20260503184916 80 40 2.0 9.0 0.00 0.00 0.00 41 1020.8
20260503184417 80 34 3.0 9.0 0.00 0.00 0.00 41 1020.8
20260503184133 80 175 3.0 7.0 0.00 0.00 0.00 43 1021.0
20260503183415 81 80 2.0 6.0 0.00 0.00 0.00 44 1021.0
20260503182850 80 172 1.0 6.0 0.00 0.00 0.00 48 1021.1
20260503182350 80 211 1.0 6.0 0.00 0.00 0.00 49 1021.2
20260503182046 79 214 1.0 5.0 0.00 0.00 0.00 44 1021.4
20260503181322 80 130 2.0 4.0 0.00 0.00 0.00 45 1021.5
20260503180758 81 147 2.0 4.0 0.00 0.00 0.00 43 1021.5
20260503180237 80 178 2.0 4.0 0.00 0.00 0.00 47 1021.6
20260503175711 80 232 2.0 7.0 0.00 0.00 0.00 46 1021.7
20260503175208 80 153 2.0 7.0 0.00 0.00 0.00 50 1021.9
20260503174649 79 287 2.0 6.0 0.00 0.00 0.00 44 1021.9
20260503174125 79 153 2.0 5.0 0.00 0.00 0.00 49 1022.1
20260503173558 79 315 2.0 6.0 0.00 0.00 0.00 40 1022.2
20260503173321 80 17 2.0 7.0 0.00 0.00 0.00 42 1022.3
20260503172531 80 135 2.0 7.0 0.00 0.00 0.00 47 1022.4
20260503172004 79 108 2.0 7.0 0.00 0.00 0.00 44 1022.5
20260503171444 79 163 2.0 7.0 0.00 0.00 0.00 46 1022.5
20260503171204 79 253 1.0 5.0 0.00 0.00 0.00 44 1022.6
20260503170414 79 166 1.0 5.0 0.00 0.00 0.00 46 1022.6
20260503160117 79 124 2.0 5.0 0.00 0.00 0.00 51 1022.8
20260503151001 76 162 1.0 5.0 0.00 0.00 0.00 58 1022.5
20260503150448 76 180 1.0 5.0 0.00 0.00 0.00 57 1022.5
20260503140218 67 246 0.0 1.0 0.00 0.00 0.00 86 1022.4
20260503131121 60 5 0.0 1.0 0.00 0.00 0.00 97 1021.9
20260503130620 60 5 0.0 1.0 0.00 0.00 0.00 97 1021.9
20260503130117 59 5 0.0 0.0 0.00 0.00 0.00 97 1022.0
20260503110501 55 9 0.0 0.0 0.00 0.00 0.00 95 1021.0
20260503100131 55 5 0.0 0.0 0.00 0.00 0.00 95 1020.6
20260503081300 57 5 0.0 0.0 0.00 0.00 0.00 94 1020.6
20260503080801 57 5 0.0 0.0 0.00 0.00 0.00 94 1020.6
20260503080240 57 5 0.0 0.0 0.00 0.00 0.00 94 1020.6
20260503072622 57 5 0.0 0.0 0.00 0.00 0.00 93 1020.6
20260503072120 58 5 0.0 0.0 0.00 0.00 0.00 93 1020.5
20260503071618 58 5 0.0 0.0 0.00 0.00 0.00 93 1020.5
20260503071119 58 5 0.0 0.0 0.00 0.00 0.00 93 1020.6
20260503070550 58 5 0.0 0.0 0.00 0.00 0.00 93 1020.7
20260503054913 59 9 0.0 0.0 0.00 0.00 0.00 91 1020.7
20260503054357 59 17 0.0 0.0 0.00 0.00 0.00 91 1020.7
20260503053857 59 9 0.0 0.0 0.00 0.00 0.00 91 1020.8
20260503053359 59 9 0.0 0.0 0.00 0.00 0.00 91 1020.7
20260503052840 59 9 0.0 0.0 0.00 0.00 0.00 90 1020.6
20260503052541 60 5 0.0 0.0 0.00 0.00 0.00 90 1020.4
20260503052245 60 5 0.0 0.0 0.00 0.00 0.00 90 1020.5
20260503051238 60 5 0.0 0.0 0.00 0.00 0.00 90 1020.6
20260503050721 60 5 0.0 0.0 0.00 0.00 0.00 90 1020.6
20260503050208 60 5 0.0 0.0 0.00 0.00 0.00 89 1020.6
20260503045705 60 5 0.0 1.0 0.00 0.00 0.00 89 1020.5
20260503045202 60 5 0.0 1.0 0.00 0.00 0.00 89 1020.4
20260503044659 60 5 0.0 0.0 0.00 0.00 0.00 88 1020.4
20260503044157 60 5 0.0 0.0 0.00 0.00 0.00 88 1020.4
20260503043630 60 5 0.0 0.0 0.00 0.00 0.00 88 1020.3
20260503043125 61 5 0.0 0.0 0.00 0.00 0.00 87 1020.3
20260503042623 61 5 0.0 0.0 0.00 0.00 0.00 87 1020.3
20260503042057 61 5 0.0 0.0 0.00 0.00 0.00 87 1020.3
20260503041749 61 5 0.0 0.0 0.00 0.00 0.00 86 1020.2
20260503041025 61 5 0.0 0.0 0.00 0.00 0.00 86 1020.3
20260503040522 61 5 0.0 0.0 0.00 0.00 0.00 86 1020.4
20260503035955 61 5 0.0 0.0 0.00 0.00 0.00 85 1020.4
20260503035452 61 5 0.0 0.0 0.00 0.00 0.00 85 1020.3
20260503034942 62 5 0.0 0.0 0.00 0.00 0.00 84 1020.2
20260503034417 62 5 0.0 0.0 0.00 0.00 0.00 83 1020.2
20260503033850 62 5 0.0 0.0 0.00 0.00 0.00 82 1020.1
20260503033343 62 5 0.0 0.0 0.00 0.00 0.00 81 1019.9
20260503032839 62 5 0.0 0.0 0.00 0.00 0.00 81 1019.9
20260503032801 62 5 0.0 0.0 0.00 0.00 0.00 80 1019.8
20260503031808 62 5 0.0 0.0 0.00 0.00 0.00 80 1019.7
20260503031241 63 5 0.0 0.0 0.00 0.00 0.00 79 1019.8
20260503030738 63 5 0.0 0.0 0.00 0.00 0.00 79 1019.7
20260503030213 63 5 0.0 0.0 0.00 0.00 0.00 79 1019.7
20260503025908 64 5 0.0 0.0 0.00 0.00 0.00 79 1019.8
20260503025142 64 13 0.0 0.0 0.00 0.00 0.00 79 1019.7
20260503024616 64 9 0.0 0.0 0.00 0.00 0.00 78 1019.8
20260503024049 64 9 0.0 1.0 0.00 0.00 0.00 77 1019.8
20260503023547 64 0 0.0 1.0 0.00 0.00 0.00 75 1019.7
20260503023025 65 0 0.0 0.0 0.00 0.00 0.00 74 1019.6
20260503022451 65 13 0.0 0.0 0.00 0.00 0.00 72 1019.6
20260503022132 67 0 0.0 1.0 0.00 0.03 0.00 71 1019.4
20260503022117 65 5 0.0 0.0 0.00 0.00 0.00 72 1019.4
20260503022047 66 5 0.0 0.0 0.00 0.00 0.00 72 1019.4
20260503022016 66 0 0.0 0.0 0.00 0.02 0.00 71 1019.4
20260503020351 67 0 0.0 1.0 0.00 0.03 0.00 71 1019.4
20260503015838 67 0 0.0 1.0 0.00 0.03 0.00 68 1019.3
20260503015341 67 17 0.0 0.0 0.00 0.04 0.00 66 1019.2
20260503014814 68 17 0.0 0.0 0.00 0.04 0.00 65 1019.2
20260503014312 69 0 0.0 0.0 0.00 0.05 0.00 64 1019.1
20260503013807 69 15 0.0 0.0 0.00 0.06 0.00 63 1019.0
20260503013305 70 0 0.0 0.0 0.00 0.06 0.00 62 1018.9
20260503012802 71 0 0.0 0.0 0.00 0.07 0.00 61 1018.8
20260503012300 71 0 0.0 0.0 0.00 0.08 0.00 59 1018.7
20260503011744 71 0 0.0 2.0 0.00 0.09 0.00 58 1018.7
20260503011246 72 0 0.0 2.0 0.00 0.10 0.00 57 1018.6
20260503010717 72 0 1.0 2.0 0.00 0.11 0.00 57 1018.7
20260503010214 73 5 1.0 3.0 0.00 0.11 0.00 56 1018.7
20260503005907 73 0 1.0 3.0 0.00 0.12 0.00 55 1018.6
20260503005137 73 0 1.0 3.0 0.00 0.12 0.00 54 1018.4
20260503004635 73 0 1.0 3.0 0.00 0.12 0.00 54 1018.4
20260503004323 74 10 1.0 3.0 0.00 0.12 0.00 54 1018.3
20260503003826 74 5 1.0 5.0 0.00 0.12 0.00 54 1018.2
20260503003037 74 349 2.0 5.0 0.00 0.13 0.00 53 1018.2
20260503003016 74 327 2.0 5.0 0.00 0.13 0.00 52 1018.1
20260503002228 75 11 2.0 6.0 0.00 0.13 0.00 52 1018.1
20260503001729 75 348 3.0 7.0 0.00 0.14 0.00 51 1018.1
20260503001159 75 355 3.0 7.0 0.00 0.14 0.00 50 1018.1
20260503000432 76 355 3.0 7.0 0.00 0.17 0.00 50 1018.0
20260503000408 76 24 2.0 6.0 0.00 0.19 0.00 50 1017.9
20260502235422 76 283 2.0 6.0 0.00 0.19 0.00 50 1017.9
20260502234920 76 51 2.0 6.0 0.00 0.20 0.00 50 1017.8
20260502234417 76 41 2.0 9.0 0.00 0.21 0.00 50 1017.9
20260502233914 76 71 3.0 9.0 0.00 0.21 0.00 49 1017.9
20260502233410 76 101 3.0 8.0 0.00 0.21 0.00 49 1017.9
20260502232907 76 28 3.0 8.0 0.00 0.21 0.00 48 1017.9
20260502232403 76 40 3.0 8.0 0.00 0.21 0.00 48 1017.9
20260502231836 76 28 3.0 8.0 0.00 0.22 0.00 48 1017.9
20260502231333 76 26 3.0 8.0 0.00 0.23 0.00 49 1017.8
20260502230830 76 24 3.0 7.0 0.00 0.26 0.00 49 1017.7
20260502230310 76 28 3.0 7.0 0.00 0.31 0.00 49 1017.7
20260502225812 76 289 4.0 8.0 0.00 0.32 0.00 49 1017.8